Regional Weather Roundup
Issued by NWS

Home | Current Version | Previous Version | Graphics & Text | Print | Product List | Glossary Off
Versions: 1 2 3 4 5 6 7 8 9 10 11 12 13 14 15 16 17 18 19 20 21 22 23 24 25 26 27 28 29 30 31 32 33 34 35 36 37 38 39 40 41 42 43 44 45 46 47 48 49 50

000
ASUS43 KMKX 212111
RWRWI

WISCONSIN REGIONAL WEATHER ROUNDUP
NATIONAL WEATHER SERVICE MILWAUKEE/SULLIVAN WI
300 PM CST WED FEB 21 2018

NOTE: "FAIR" INDICATES FEW OR NO CLOUDS BELOW 12,000 FEET WITH NO
SIGNIFICANT WEATHER AND/OR OBSTRUCTIONS TO VISIBILITY.

WIZ001-002-006>008-014>016-023>028-212200-
NORTHWEST WISCONSIN

CITY           SKY/WX    TMP DP  RH WIND       PRES   REMARKS
SUPERIOR ARPT  FAIR      23   6  49 SW12      30.57S WCI  11
ASHLAND        FAIR      21   6  52 SW9       30.56S WCI  11
HAYWARD        FAIR      20   3  48 SW9       30.56R WCI   9
SIREN          FAIR      20   2  45 SW7       30.59S WCI  11
CUMBERLAND     FAIR      18   3  53 S8        30.57S WCI   7
RICE LAKE      FAIR      18   4  53 SW5       30.61S WCI  11
CHETEK         FAIR      18   2  49 SW5       30.60F WCI  11
LADYSMITH      FAIR      19   4  52 CALM      30.59S
EAU CLAIRE     FAIR      17   4  56 W8        30.62S WCI   7
MENOMONIE      FAIR      20   3  47 CALM      30.63R
NEW RICHMOND   FAIR      19   5  52 S5        30.62R WCI  13
OSCEOLA        FAIR      21   3  44 S7        30.64R WCI  13
$$

WIZ003>005-009-010-017-018-212200-
NORTH CENTRAL WISCONSIN

CITY           SKY/WX    TMP DP  RH WIND       PRES   REMARKS
MANITOWISH WTR FAIR      18   7  62 SW12      30.51R WCI   6
ARBOR VITAE    FAIR      22  11  62 W7        30.52R WCI  13
WOODRUFF       FAIR      22  11  62 W7        30.52R WCI  13
RHINELANDER    FAIR      21   7  54 W9        30.52R WCI  11
EAGLE RIVER    FAIR      19   5  54 W9        30.51R WCI   9
LAND O LAKES   FAIR      22   8  56 W6        30.51R WCI  14
PHILLIPS       FAIR      18   6  61 SW8       30.53S WCI   7
TOMAHAWK       FAIR      20   6  52 W7        30.54S WCI  11
MEDFORD        FAIR      17   5  58 SW6       30.55S WCI   9
MERRILL        FAIR      22  11  61 SW10      30.56R WCI  11
$$

WIZ029-030-035-036-043>047-212200-
CENTRAL WISCONSIN

CITY           SKY/WX    TMP DP  RH WIND       PRES   REMARKS
WAUSAU         FAIR      18   8  65 W8        30.56S WCI   8
MOSINEE        MOSUNNY   19   9  63 W9        30.58S WCI   9
MARSHFIELD     FAIR      19   8  62 W8        30.57S WCI   9
STEVENS POINT  FAIR      18   6  59 W8        30.60S WCI   8
WAUPACA        FAIR      26   8  47 W8        30.61S WCI  18
WAUTOMA        FAIR      25  11  55 NW6       30.61S WCI  18
WISC RAPIDS    FAIR      22   8  55 VRB3      30.61S
CAMP DOUGLAS   MOSUNNY   23  12  63 W7        30.61S WCI  15
$$

WIZ011>013-019>022-031-037>040-048>050-212200-
NORTHEAST WISCONSIN

CITY           SKY/WX    TMP DP  RH WIND       PRES   REMARKS
ANTIGO         FAIR      18  10  70 W8        30.54R WCI   8
SHAWANO        FAIR      27  10  49 W6        30.59R WCI  20
OCONTO         FAIR      27  10  49 NW5       30.59R WCI  21
STURGEON BAY   NOT AVBL
GREEN BAY      FAIR      26  12  55 W10       30.60R WCI  16
MANITOWOC      FAIR      26  13  57 W9        30.60R WCI  17
APPLETON       PTSUNNY   25   3  39 W10       30.57S WCI  15
CLINTONVILLE   FAIR      24   8  49 W9        30.59S WCI  14
OSHKOSH        FAIR      26  10  50 NW9       30.60R WCI  17
$$

WIZ032>034-041-042-053>061-212200-
SOUTHWEST WISCONSIN

CITY           SKY/WX    TMP DP  RH WIND       PRES   REMARKS
LA CROSSE      FAIR      25  12  58 NW3       30.64F
SPARTA         FAIR      23  14  69 CALM      30.64S
VIROQUA        FAIR      22  16  76 NW3       30.59S
BOSCOBEL       FAIR      28   8  43 NW5       30.64S WCI  23
PRAIRIE DU CHI FAIR      26   6  42 CALM      30.63F
PLATTEVILLE    FAIR      26  14  61 N6        30.60S WCI  19
$$

WIZ056-057-062-063-064-067-068-212200-
SOUTH CENTRAL WISCONSIN

CITY           SKY/WX    TMP DP  RH WIND       PRES   REMARKS
REEDSBURG      FAIR      25   8  49 CALM      30.61S
BARABOO/DELLS  FAIR      25   6  42 NW5       30.60S WCI  20
LONE ROCK      FAIR      27  10  49 NW3       30.62S
MINERAL POINT  FAIR      28  12  50 N3        30.59R
MADISON        CLOUDY    25  11  55 NW6       30.61F WCI  18
MIDDLETON      FAIR      28  15  58 N7        30.61R WCI  20
WATERTOWN      FAIR      25  13  61 NW7       30.60R WCI  17
MONROE         FAIR      27  16  63 N8        30.58S WCI  18
JANESVILLE     CLOUDY    28  18  64 N6        30.56F WCI  22
$$

WIZ051-052-058>065-066-070>072-212200-
SOUTHEAST WISCONSIN

CITY           SKY/WX    TMP DP  RH WIND       PRES   REMARKS
MILWAUKEE      CLOUDY    30  15  53 N5        30.59S WCI  25
WAUKESHA       SUNNY     23  14  68 NW8       30.60R WCI  14
MILWAUKEE/TIMM SUNNY     27  12  54 NW5       30.60S WCI  21
RACINE         FAIR      29  17  61 N7        30.61R WCI  22
BURLINGTON     FAIR      27  14  57 N6        30.59S WCI  21
KENOSHA        FAIR      29  17  61 NW6       30.59R WCI  23
FOND DU LAC    FAIR      26   9  48 VRB5      30.60R WCI  20
SHEBOYGAN      FAIR      25  13  60 W8        30.60R WCI  16
WEST BEND      FAIR      27  14  59 NW8       30.59R WCI  18
JUNEAU         FAIR      23  10  57 NW5       30.61S WCI  17
$$

LSZ147-162-212200-
LAKE SUPERIOR

STATION/POSITION TIME  TEMP    WIND        PRES    WAVE
                       AIR SEA DIR/SP/G            HT/PER
                 (UTC) (F)     (DEG/KT/KT) (MB)    (FT/S)
DEVILS ISLAND    2100   21     240/ 16/ 20 1035.7R
SAXON HARBOR     2030   24     250/  5/ 13 1034.5R
$$

LMZ867-665-643>646-212200-
LAKE MICHIGAN

STATION/POSITION TIME  TEMP    WIND        PRES    WAVE
                       AIR SEA DIR/SP/G            HT/PER
                 (UTC) (F)     (DEG/KT/KT) (MB)    (FT/S)
NORTHPORT PIER   2040   27                 1034.9R
KEWAUNEE LAKESHO 2042   26     270/  9/ 11 1034.8R
SHEBOYGAN LAKESH 2100   25     280/  9/ 10 1037.3R
PORT WASHINGTON  2030   27     290/  4/  9 1037.3R
MILWAUKEE LAKESH 2050   27      40/  5/  6   N/A
KENOSHA   LAKESH 2100   27      40/  6/  8 1035.9
$$

TC  - TEMPERATURE IN CELSIUS
VSB - VISIBILITY IN STATUTE MILES
WCI - WIND CHILL INDEX
HX  - HEAT INDEX




USA.gov is the U.S. government's official web portal to all federal, state and local government web resources and services.